#timestamp,LO_Frequency,Hit,StdDev 
1557381615.9,286047005.9,N
1557381635.7,286047001.4,N
1557381655.6,286047003.9,N
1557381675.4,286047004.0,N
1557381695.3,286047001.8,N
1557381715.1,286047003.5,N
1557381735.8,286047003.3,N
1557381755.7,286047004.3,N
1557381775.5,286047001.7,N
1557381795.3,286047004.2,N
1557381815.2,286047002.6,N
1557381835.0,286047003.3,N
1557381835.9,286047003.3,N
1557381855.8,286047002.9,N
1557381875.6,286047005.4,N
1557381895.4,286047003.9,N
1557381915.3,286047000.1,N
1557381935.1,286047000.6,N
1557381955.9,286047002.6,N
1557381975.7,286046999.8,N
1557381995.5,286047004.2,N
1557382015.4,286047001.8,N
1557382035.2,286047002.8,N
1557382055.0,286047001.6,N
1557382055.9,286047001.6,N
1557382075.8,286047003.6,N
1557382095.6,286047003.5,N
1557382115.5,286047002.9,N
1557382135.3,286047003.3,N
1557382155.1,286047004.4,N
1557382175.9,286047004.3,Y
1557382195.7,286047002.4,P
1557382215.5,286046999.9,N
1557382235.4,286047000.5,N
1557382255.2,286047002.6,N
1557382275.1,286047001.5,N
1557382276.0,286047001.5,N
1557382295.8,286047003.9,Y
1557382315.6,286047002.3,P
1557382335.5,286047000.9,N
1557382355.3,286047001.1,N
1557382375.1,286047001.0,N
1557382395.9,286047000.0,N
1557382415.7,286046999.4,N
1557382435.6,286046996.8,Y
1557382455.4,286046998.5,P
1557382475.2,286046997.4,N
1557382495.1,286046997.6,N
1557382496.0,286046997.6,N
1557382515.8,286046996.3,N
1557382535.6,286046995.2,Y
1557382555.5,286046995.7,P
1557382575.3,286046995.1,P
1557382595.2,286046997.4,N
1557382615.9,286046997.0,N
1557382635.7,286046996.9,N
1557382655.6,286046999.6,N
1557382675.4,286046996.8,N
1557382695.2,286046998.7,N
1557382715.1,286046999.9,N
1557382716.0,286046999.9,N
1557382735.8,286047000.3,N
1557382755.7,286047000.9,N
1557382775.5,286047000.0,N
1557382795.3,286046999.4,N
1557382815.2,286046996.8,N
1557382835.0,286046999.5,N
1557382835.9,286046999.5,N
1557382855.7,286047000.0,N
1557382875.6,286047002.3,N
1557382895.4,286046999.9,N
1557382915.3,286047001.1,N
1557382935.1,286046999.7,N
1557382936.0,286046999.7,N
1557382955.8,286047002.1,N
1557382975.7,286047002.8,N
1557382995.5,286047000.3,N
1557383015.3,286047001.7,N
1557383035.2,286047001.6,N
1557383055.0,286047000.2,N
1557383055.9,286047000.2,N
1557383075.8,286047000.7,N
1557383095.6,286047000.0,N
1557383115.4,286047002.1,N
1557383135.3,286047005.6,Y
1557383155.1,286047003.7,P
1557383175.9,286047005.6,P
1557383195.7,286047005.9,N
1557383215.5,286047004.4,N
1557383235.4,286047001.6,N
1557383255.2,286047002.7,N
1557383275.0,286047001.7,N
1557383275.9,286047001.7,N
1557383295.8,286047001.9,N
1557383315.6,286047002.2,N
1557383335.5,286047000.6,N
1557383355.3,286047002.4,N
1557383375.1,286047000.7,N
1557383395.9,286046999.7,N
1557383415.7,286047000.2,N
1557383435.5,286047001.8,N
1557383455.4,286047001.6,N
1557383475.2,286047002.7,N
1557383495.0,286047000.1,N
1557383496.0,286047000.1,N
1557383515.8,286046998.6,N
1557383535.6,286046996.9,N
1557383555.5,286046996.6,N
1557383575.3,286046999.0,N
1557383595.1,286046998.6,N
1557383615.9,286046996.9,N
1557383635.7,286046998.0,N
1557383655.5,286046995.7,N
1557383675.4,286046997.0,N
1557383695.2,286046996.8,N
1557383715.1,286046995.2,N
1557383716.0,286046995.2,N
1557383735.8,286046995.4,N
1557383755.6,286046997.1,N
1557383775.5,286046996.8,N
1557383795.3,286046994.9,N
1557383815.1,286046998.9,N
1557383835.9,286046998.2,N
1557383855.7,286047002.8,N
1557383875.6,286047003.5,N
1557383895.4,286047003.8,N
1557383915.2,286047003.7,N
1557383935.1,286047002.2,N
1557383936.0,286047002.2,N
1557383955.8,286046999.8,N
1557383975.6,286046998.5,N
1557383995.5,286046997.7,N
1557384015.3,286047000.0,N
1557384035.2,286047000.7,N
1557384055.9,286047000.6,N
1557384075.7,286046999.8,N
1557384095.6,286047002.5,N
1557384115.4,286047001.7,N
1557384135.3,286047004.3,N
1557384155.1,286047004.1,N
1557384156.0,286047004.1,N
1557384175.8,286047003.1,N
1557384195.7,286047002.4,N
1557384215.5,286047001.1,N
1557384235.3,286047000.4,N
1557384255.2,286046998.1,N
1557384275.0,286047000.7,N
1557384275.9,286047000.7,N
1557384295.8,286046996.7,N
1557384315.6,286046998.5,N
1557384335.4,286047000.6,N
1557384355.3,286047001.7,N
1557384375.1,286047001.3,N
1557384395.8,286047002.6,N
1557384415.7,286047003.8,N
1557384435.5,286047002.4,N
1557384455.4,286047001.6,N
1557384475.2,286047005.9,Y
1557384495.0,286047003.1,P
1557384495.9,286047003.1,P
1557384515.8,286047005.9,P
1557384535.6,286047005.1,N
1557384555.5,286047007.2,Y
1557384575.3,286047001.7,P
1557384595.1,286047001.8,N
1557384615.9,286047004.3,P
1557384635.7,286047004.3,Y
1557384655.5,286047000.8,P
1557384675.4,286046999.4,N
1557384695.2,286046999.5,N
1557384715.1,286046997.2,N
1557384716.0,286046997.2,N
1557384735.8,286046997.6,N
1557384755.6,286046998.0,N
1557384775.5,286046995.7,N
1557384795.3,286046994.4,N
1557384815.1,286046993.9,N
1557384835.9,286046995.0,N
1557384855.7,286046993.9,N
1557384875.6,286046995.9,N
1557384895.4,286046997.9,N
1557384915.2,286046993.4,N
1557384935.1,286046994.8,N
1557384936.0,286046994.8,N
1557384955.8,286046994.7,N
1557384975.6,286046996.2,N
1557384995.5,286046993.3,N
1557385015.3,286046993.7,N
1557385035.2,286046994.0,N
1557385055.9,286046994.5,N
1557385075.3,286046992.2,Y
1557385095.1,286046997.7,P
1557385115.9,286046999.3,N
1557385135.7,286046997.6,N
1557385155.1,286046994.6,Y
1557385156.0,286046994.6,P
1557385175.8,286046995.0,P
1557385195.6,286046993.7,P
